Waarnemingen

Advertentie
Mijn weer
Brindisi, Italië (16320): temperatuur & dauwpunt: 11.12.2018 20:00:00 - 17.12.2018 20:00:00 (CET)Brindisi, Italië (16320): windsnelheid: 11.12.2018 20:00:00 - 17.12.2018 20:00:00 (CET)Brindisi, Italië (16320): windrichting: 11.12.2018 20:00:00 - 17.12.2018 20:00:00 (CET)Brindisi, Italië (16320): luchtdruk: 11.12.2018 20:00:00 - 17.12.2018 20:00:00 (CET)Brindisi, Italië (16320): zicht: 11.12.2018 20:00:00 - 17.12.2018 20:00:00 (CET)Brindisi, Italië (16320): neerslag: 11.12.2018 20:00:00 - 17.12.2018 20:00:00 (CET)
Datum & Tijd tt [°C] td [°C] ff [km/u] ff [kn] dd ppp [hPa] vv [km] rr [mm]
17.12.2018 20:00:00 10,0 8,0 35 19 WNW - 8 -
17.12.2018 19:00:00 9,9 8,3 37 20 WNW 1010,4 8 -
17.12.2018 18:00:00 10,0 9,0 37 20 WNW - 5 -
17.12.2018 17:00:00 11,0 10,0 29 16 WNW - 5 -
17.12.2018 16:00:00 12,5 11,2 9 5 ZO 1008,7 5 0,0
17.12.2018 15:00:00 12,0 11,0 18 10 ZZO - 8 -
17.12.2018 14:00:00 12,0 10,0 21 11 ZZO - 9 -
17.12.2018 13:00:00 12,4 9,1 22 12 ZZO 1010,5 10 -
17.12.2018 12:00:00 12,0 7,0 18 10 ZZO - 10 -
17.12.2018 11:00:00 11,0 6,0 24 13 ZZO - 10 -
17.12.2018 10:00:00 10,2 5,5 15 8 ZZO 1014,4 10 0,0
17.12.2018 09:00:00 10,0 5,0 16 9 ZZO - 10 -
17.12.2018 08:00:00 9,0 5,0 15 8 ZZO - 10 -
17.12.2018 07:00:00 8,5 5,0 11 6 Z 1015,0 10 -
17.12.2018 06:00:00 8,0 6,0 8 4 ZZO - 10 -
17.12.2018 05:00:00 8,0 5,0 5 3 Z - 10 -
17.12.2018 04:00:00 6,7 4,4 4 2 Z 1016,6 10 0,0
17.12.2018 03:00:00 6,0 4,0 8 4 ZW - 10 -
17.12.2018 02:00:00 5,0 3,0 11 6 WZW - 10 -
17.12.2018 01:00:00 4,5 2,3 11 6 WZW 1018,0 10 -
17.12.2018 00:00:00 5,0 2,0 13 7 ZW - 10 -
16.12.2018 23:00:00 7,0 3,0 13 7 WZW - 10 -
16.12.2018 22:00:00 6,2 2,8 15 8 WZW 1019,2 10 0,0
16.12.2018 21:00:00 6,0 3,0 13 7 WZW - 10 -
16.12.2018 20:00:00 7,0 3,0 11 6 W - 10 -
16.12.2018 19:00:00 10,1 3,1 21 11 NNW 1019,1 10 -
16.12.2018 18:00:00 10,0 3,0 15 8 NW - 10 -
16.12.2018 17:00:00 10,0 3,0 24 13 NNW - 10 -
16.12.2018 16:00:00 9,8 2,3 26 14 NNW 1018,5 10 0,0
16.12.2018 15:00:00 10,0 4,0 29 16 NW - 10 -
16.12.2018 14:00:00 10,0 4,0 31 17 NNW - 10 -
16.12.2018 13:00:00 9,9 1,9 31 17 NW 1017,3 10 -
16.12.2018 12:00:00 10,0 1,0 34 18 NNW - 10 -
16.12.2018 11:00:00 10,0 1,0 29 16 NW - 10 -
16.12.2018 10:00:00 9,3 1,1 29 16 NW 1018,0 10 0,0
16.12.2018 09:00:00 9,0 1,0 28 15 NNW - 10 -
16.12.2018 08:00:00 9,0 0,0 29 16 NNW - 10 -
16.12.2018 07:00:00 8,9 1,3 29 16 NNW 1017,0 10 -
16.12.2018 06:00:00 7,0 4,0 22 12 W - 10 -
16.12.2018 05:00:00 - - - - - - - -
16.12.2018 04:00:00 7,5 4,5 34 18 NW 1016,4 10 0,0
16.12.2018 03:00:00 8,0 5,0 35 19 NW - 10 -
16.12.2018 02:00:00 - - - - - - - -
16.12.2018 01:00:00 8,8 5,7 34 18 NW 1015,1 10 -
16.12.2018 00:00:00 9,0 6,0 31 17 NW - 10 -
15.12.2018 23:00:00 9,0 7,0 28 15 NW - 10 -
15.12.2018 22:00:00 8,9 5,0 28 15 NW 1015,0 10 0,0
15.12.2018 21:00:00 9,0 6,0 28 15 NNW - 10 -
15.12.2018 20:00:00 9,0 7,0 28 15 NNW - 10 -
15.12.2018 19:00:00 9,1 7,2 37 20 NW 1013,7 10 -
15.12.2018 18:00:00 9,0 8,0 39 21 WNW - 10 -
15.12.2018 17:00:00 10,0 8,0 29 16 NW - 10 -
15.12.2018 16:00:00 10,3 7,9 29 16 NW 1012,2 10 0,0
15.12.2018 15:00:00 11,0 8,0 31 17 NW - 10 -
15.12.2018 14:00:00 11,0 8,0 28 15 NW - 10 -
15.12.2018 13:00:00 11,2 8,5 28 15 NW 1011,8 10 -
15.12.2018 12:00:00 11,0 9,0 31 17 NW - 10 -
15.12.2018 11:00:00 11,0 9,0 31 17 NW - 10 -
15.12.2018 10:00:00 11,3 9,4 21 11 NW 1012,4 10 0,0
15.12.2018 09:00:00 12,0 10,0 21 11 NNW - 10 -
15.12.2018 08:00:00 12,0 10,0 21 11 NW - 10 -
15.12.2018 07:00:00 12,4 10,4 22 12 NNW 1009,7 10 -
15.12.2018 06:00:00 11,0 11,0 21 11 NW - 7 -
15.12.2018 05:00:00 11,0 10,0 28 15 W - 5 -
15.12.2018 04:00:00 12,5 11,7 28 15 NW 1009,6 7 0,0
15.12.2018 03:00:00 12,0 11,0 26 14 WNW - 7 -
15.12.2018 02:00:00 13,0 11,0 18 10 NW - 10 -
15.12.2018 01:00:00 12,6 11,1 13 7 NW 1010,6 8 -
15.12.2018 00:00:00 13,0 12,0 13 7 NW - 8 -
14.12.2018 23:00:00 13,0 12,0 9 5 NW - 8 -
14.12.2018 22:00:00 13,6 12,5 5 3 NW 1011,4 8 0,0
14.12.2018 21:00:00 14,0 12,0 8 4 NW - 8 -
14.12.2018 20:00:00 14,0 12,0 11 6 NW - 10 -
14.12.2018 19:00:00 14,9 12,8 5 3 ZZW 1011,0 10 -
14.12.2018 18:00:00 15,0 13,0 11 6 Z - 10 -
14.12.2018 17:00:00 15,0 12,0 9 5 Z - 10 -
14.12.2018 16:00:00 16,0 11,9 21 11 Z 1010,0 10 0,0
14.12.2018 15:00:00 17,0 12,0 24 13 Z - 10 -
14.12.2018 14:00:00 17,0 11,0 28 15 Z - 10 -
14.12.2018 13:00:00 17,1 12,0 26 14 Z 1009,7 10 -
14.12.2018 12:00:00 17,0 12,0 24 13 Z - 10 -
14.12.2018 11:00:00 16,0 12,0 21 11 Z - 10 -
14.12.2018 10:00:00 15,0 12,9 13 7 Z 1010,6 10 0,0
14.12.2018 09:00:00 13,0 12,0 13 7 ZZO - 10 -
14.12.2018 08:00:00 12,0 11,0 13 7 ZZO - 10 -
14.12.2018 07:00:00 12,3 10,9 11 6 ZZO 1010,5 10 -
14.12.2018 06:00:00 12,0 11,0 5 3 ZZO - 10 -
14.12.2018 05:00:00 12,0 11,0 9 5 ZO - 10 -
14.12.2018 04:00:00 11,6 10,5 8 4 ZZO 1011,1 10 0,0
14.12.2018 03:00:00 - - - - - - - -
14.12.2018 02:00:00 - - - - - - - -
14.12.2018 01:00:00 11,9 9,6 9 5 ZZW 1011,8 10 -
14.12.2018 00:00:00 12,0 10,0 16 9 ZZW - 10 -
13.12.2018 23:00:00 12,0 10,0 16 9 ZZW - 10 -
13.12.2018 22:00:00 11,2 9,6 13 7 Z 1011,3 10 0,0
13.12.2018 21:00:00 11,0 10,0 13 7 ZZO - 10 -
13.12.2018 20:00:00 11,0 10,0 16 9 ZZO - 10 -
13.12.2018 19:00:00 11,4 9,8 15 8 ZZO 1011,9 10 -
13.12.2018 18:00:00 11,0 9,0 13 7 ZZO - 10 -
13.12.2018 17:00:00 12,0 9,0 15 8 ZZO - 10 -
13.12.2018 16:00:00 12,0 7,9 9 5 ZO 1012,3 10 0,0
13.12.2018 15:00:00 12,0 7,0 16 9 ZO - 10 -
13.12.2018 14:00:00 12,0 7,0 16 9 ZZO - 10 -
13.12.2018 13:00:00 12,0 7,0 18 10 ZZO 1013,1 10 -
13.12.2018 12:00:00 11,0 8,0 13 7 ZO - 10 -
13.12.2018 11:00:00 10,0 7,0 11 6 Z - 10 -
13.12.2018 10:00:00 9,4 6,9 9 5 Z 1015,2 10 0,0
13.12.2018 09:00:00 9,0 6,0 9 5 Z - 10 -
13.12.2018 08:00:00 8,0 6,0 8 4 Z - 10 -
13.12.2018 07:00:00 7,9 5,3 5 3 Z 1015,9 10 -
13.12.2018 06:00:00 9,0 4,0 9 5 Z - 10 -
13.12.2018 05:00:00 9,0 3,0 9 5 Z - 10 -
13.12.2018 04:00:00 8,8 3,7 5 3 ZZO 1016,8 10 0,0
13.12.2018 03:00:00 9,0 3,0 5 3 ZO - 10 -
13.12.2018 02:00:00 9,0 2,0 8 4 Z - 10 -
13.12.2018 01:00:00 8,5 2,1 5 3 Z 1018,1 10 -
13.12.2018 00:00:00 8,0 2,0 4 2 - - 10 -
12.12.2018 23:00:00 8,0 2,0 8 4 Z - 10 -
12.12.2018 22:00:00 5,7 2,8 5 3 ZZW 1019,3 10 0,0
12.12.2018 21:00:00 6,0 2,0 9 5 ZZW - 10 -
12.12.2018 20:00:00 7,0 2,0 5 3 Z - 10 -
12.12.2018 19:00:00 5,6 3,1 2 1 - 1019,7 10 -
12.12.2018 18:00:00 7,0 4,0 5 3 ZZW - 10 -
12.12.2018 17:00:00 8,0 4,0 4 2 Z - 10 -
12.12.2018 16:00:00 9,3 3,1 8 4 Z 1019,6 10 0,0
12.12.2018 15:00:00 10,0 5,0 4 2 WNW - 10 -
12.12.2018 14:00:00 10,0 4,0 8 4 WNW - 10 -
12.12.2018 13:00:00 9,9 3,8 5 3 W 1019,7 10 -
12.12.2018 12:00:00 11,0 4,0 8 4 WNW - 10 -
12.12.2018 11:00:00 11,0 4,0 11 6 W - 10 -
12.12.2018 10:00:00 8,5 4,8 11 6 ZW 1020,6 10 0,0
12.12.2018 09:00:00 5,0 3,0 16 9 WZW - 10 -
12.12.2018 08:00:00 5,0 2,0 8 4 ZZW - 10 -
12.12.2018 07:00:00 3,4 1,7 11 6 WZW 1019,5 10 -
12.12.2018 06:00:00 4,0 2,0 13 7 ZW - 10 -
12.12.2018 05:00:00 8,0 3,0 18 10 NO - 10 -
12.12.2018 04:00:00 5,5 3,3 5 3 WZW 1019,4 10 0,0
12.12.2018 03:00:00 - - - - - - - -
12.12.2018 02:00:00 7,0 4,0 21 11 W - 10 -
12.12.2018 01:00:00 7,9 1,2 15 8 W 1018,4 10 -
12.12.2018 00:00:00 9,0 0,0 21 11 NW - 10 -
11.12.2018 23:00:00 6,0 3,0 8 4 - - 10 -
11.12.2018 22:00:00 5,8 2,5 13 7 WZW 1018,3 10 0,0
11.12.2018 21:00:00 7,0 2,0 22 12 W - 10 -
11.12.2018 20:00:00 7,0 2,0 11 6 WZW - 10 -

tt = temperatuur
td = dauwpunt
ff = windsnelheid
dd = windrichting
ppp = luchtdruk
vv = zicht
rr = neerslag

Weerstations in de omgeving